map of TGD home
TGD - Airport
Location
City:  Podgorica, Montenegro
Near (Alt.):Titograd
ICAO:LYPG
IATA:TGD

Details
Type:Airport (Aerodrome, Airfield)
Use:Public/Civil
Latitude:4221'34"N (42.359392)
Longitude:1915'07"E (19.251894)
Datum:WGS 1984
Elevation:141 ft (43 m)
Variation:4.16E (WMM2015 magnetic declination)
0.10 annual change
Runways:2
Longest:8202 × 148 ft (2500 × 45 m), paved

Time
Time Zone:UTC+1 (DST+2)
Local Time:

Weather
METAR:LYPG 210230Z 34006KT CAVOK 03/M05 Q1021 NOSIG
TAF:LYPG 202300Z 2100/2124 36005KT CAVOK TX12/2113Z TN01/2105Z

Related Locations
Nearby:
Farthest:CHT: 11641 mi / 18734 km
Waitangi [Tuuta], CIT, NZ

Find:

   beyond  
but within

Other Information
Maps:
NOTAMs:
Links:
Sources:

  
flag of Montenegro
flag of Podgorica
  

Sectional Chart

Flight Planning
at skyvector.com

Satellite Image

Google Maps Satellite view

 

Copyright © 2004-2017 Karl L. Swartz. All rights reserved.
The Great Circle Mapper name and logo are trademarks of the Great Circle Mapper.
All other trademarks mentioned herein belong to their respective owners.
Please see credits for attibutions and further copyright information.

  Follow gcmap on Facebook Follow gcmap on Twitter Follow gcmap on Google+ GCmap on LinkedIn

hCard Microformat

Geo Microformat